Powrót do katalogu

STARLINK-36488

AktywnyŁącznośćVLEO
NORAD 67306·PAYLOAD·🇺🇸 United States

Wystrzelony Jan 4, 2026 z Cape Canaveral Space Force Station

Loading…

Następne Przeloty (najbliższe 24 godziny)

TLE

ŚwieżeSource: CelesTrak SupGP

Epoka: Sep 14, 2026, 21:39 UTC

1 67306C 26002B   26257.90256944 -.00021681  00000+0 -78532-3 0  2577
2 67306  43.0009 336.9857 0001302 273.3991  72.4400 15.27587915    19

Śledź STARLINK-36488 w czasie rzeczywistym z AllMySat

Download on the App Store